Kezdőlap
METAR-TAF:

METAR-TAF

Repülőterek :

Granite Falls Municipal Airport (Lenzen-Roe Memorial Field)

Granite Falls, Minnesota, Amerikai Egyesült Államok

földrajzi szélesség: 44-45-11N, földrajzi hosszúság: 095-33-21W, magasság: 319 m

Jelenlegi meteorológiai megfigyelések

A jelentés 11 perccel ezelõtt készült, 14:15 UTC
Nyugati szél 3 kt
Hőmérséklet -1°C
Páratartalom 86%
Légköri nyomás 1029 hPa
Látótávolság: 16.1 km
Borult 10000 lábon

METAR: KGDB 041415Z AUTO 27003KT 10SM OVC100 M01/M03 A3038 RMK AO2 T10081030

Idő: 08:26 (14:26 UTC)


TAF: hiányzik

Meteorológiai megfigyelések és előrejelzések több, mint 4000 repülőtéren (METAR és TAF jelentéseket).

A térképen piros és sárga pontok jelzik az elérhető meteorológiai állomásokat.

Mozgassa az egeret a pont fölött, hogy megjelenjen az állomás neve.

Azután kattintson az időjárási megfigyelések és előrejelzések megtekintéséhez.

A térkép megváltoztatása: kattintson a fekete keresztel jelölt zöld gombra ráközelítéshez, a vonallal jelölt zöld gombra távolításhoz, vagy a zöld nyilakra a szomszédos térképek eléréséhez.


METAR-TAF: